This is the latest recevied weather packets stored in our database for station/object N5COP-13. If no packets are shown the sender has not sent any weather packets the latest 1 day(s).
| Time | Temp. | Humidity | Pressure | Rain* | Wind** | Luminosity | Snow |
|---|---|---|---|---|---|---|---|
| 1778016517 | 18.89° C | 37% | 1010.3 hPa | 0 mm | 1.34 m/s, 38° | 368 W/m² | - |
| 1778016214 | 18.89° C | 38% | 1010.2 hPa | 0 mm | 1.79 m/s, 44° | 390 W/m² | - |
| 1778015910 | 18.33° C | 38% | 1010.4 hPa | 0 mm | 4.92 m/s, 92° | 385 W/m² | - |
| 1778015608 | 18.33° C | 39% | 1010.5 hPa | 0 mm | 3.13 m/s, 44° | 701 W/m² | - |
| 1778015304 | 17.78° C | 39% | 1010.6 hPa | 0 mm | 4.92 m/s, 85° | 451 W/m² | - |
| 1778015002 | 17.78° C | 39% | 1010.8 hPa | 0 mm | 4.47 m/s, 107° | 381 W/m² | - |
| 1778014698 | 17.78° C | 39% | 1010.7 hPa | 0 mm | 3.58 m/s, 80° | 441 W/m² | - |
| 1778014397 | 17.22° C | 39% | 1010.7 hPa | 0 mm | 6.26 m/s, 91° | 378 W/m² | - |
| 1778014093 | 17.78° C | 39% | 1010.9 hPa | 0 mm | 5.36 m/s, 73° | 423 W/m² | - |
| 1778013791 | 18.33° C | 39% | 1011.3 hPa | 0 mm | 2.68 m/s, 80° | 370 W/m² | - |
| 1778013488 | 17.78° C | 38% | 1011.2 hPa | 0 mm | 4.02 m/s, 43° | 459 W/m² | - |
| 1778013185 | 17.78° C | 39% | 1011.1 hPa | 0 mm | 5.36 m/s, 82° | 468 W/m² | - |
| 1778012881 | 17.78° C | 39% | 1011.1 hPa | 0 mm | 2.68 m/s, 89° | 557 W/m² | - |
| 1778012577 | 17.78° C | 39% | 1011.2 hPa | 0 mm | 2.68 m/s, 79° | 404 W/m² | - |
| 1778012274 | 17.78° C | 39% | 1010.9 hPa | 0 mm | 2.68 m/s, 78° | 526 W/m² | - |
| 1778011971 | 18.33° C | 38% | 1010.9 hPa | 0 mm | 5.36 m/s, 105° | 361 W/m² | - |
| 1778011669 | 18.33° C | 39% | 1011.2 hPa | 0 mm | 2.24 m/s, 348° | 373 W/m² | - |
| 1778011366 | 17.78° C | 40% | 1010.9 hPa | 0 mm | 2.24 m/s, 64° | 549 W/m² | - |
| 1778011061 | 17.78° C | 39% | 1010.9 hPa | 0 mm | 2.24 m/s, 122° | 405 W/m² | - |
| 1778010759 | 17.78° C | 39% | 1010.9 hPa | 0 mm | 4.47 m/s, 38° | 421 W/m² | - |
| 1778010456 | 18.33° C | 39% | 1011.2 hPa | 0 mm | 4.92 m/s, 77° | 485 W/m² | - |
| 1778010153 | 17.78° C | 40% | 1010.9 hPa | 0 mm | 4.02 m/s, 77° | 796 W/m² | - |
| 1778009848 | 17.78° C | 40% | 1010.9 hPa | 0 mm | 1.79 m/s, 53° | 646 W/m² | - |
| 1778009546 | 17.78° C | 39% | 1010.7 hPa | 0 mm | 4.92 m/s, 95° | 646 W/m² | - |
| 1778009245 | 18.33° C | 39% | 1010.9 hPa | 0 mm | 4.02 m/s, 15° | 681 W/m² | - |
* Rain latest hour (hover to see other rain measurements)
** Current wind speed in m/s (hover to see current wind gust speed)